| time (UTC) | temp C | wind direction | speed KPH | gust KPH | rain 1hr cm | rain 24hr cm | rain mn cm | humidity % | barometer mb |
| 20260504050004 | 6 | 294 | 0.0 | 3.2 | 0.00 | 0.03 | 0.00 | 73 | 1002.6 |
| 20260504045004 | 6 | 287 | 0.0 | 1.6 | 0.00 | 0.03 | 0.03 | 69 | 1002.7 |
| 20260504044003 | 6 | 12 | 0.0 | 3.2 | 0.00 | 0.03 | 0.03 | 66 | 1002.6 |
| 20260504043004 | 6 | 274 | 1.6 | 1.6 | 0.00 | 0.03 | 0.03 | 64 | 1002.7 |
| 20260504042004 | 6 | 295 | 0.0 | 1.6 | 0.00 | 0.03 | 0.03 | 62 | 1002.8 |
| 20260504035004 | 7 | 294 | 0.0 | 1.6 | 0.00 | 0.03 | 0.03 | 53 | 1003.2 |
| 20260504034004 | 7 | 299 | 0.0 | 1.6 | 0.00 | 0.03 | 0.03 | 52 | 1003.1 |
| 20260504033004 | 8 | 330 | 0.0 | 1.6 | 0.00 | 0.03 | 0.03 | 50 | 1003.3 |
| 20260504030004 | 10 | 316 | 0.0 | 1.6 | 0.00 | 0.03 | 0.03 | 46 | 1003.3 |
| 20260504025004 | 10 | 0 | 0.0 | 1.6 | 0.00 | 0.03 | 0.03 | 44 | 1003.3 |
| 20260504024004 | 11 | 326 | 0.0 | 1.6 | 0.00 | 0.03 | 0.03 | 43 | 1003.2 |
| 20260504023004 | 12 | 330 | 0.0 | 1.6 | 0.00 | 0.03 | 0.03 | 42 | 1003.2 |
| 20260504022004 | 13 | 38 | 0.0 | 3.2 | 0.00 | 0.03 | 0.03 | 40 | 1003.1 |
| 20260504021003 | 13 | 3 | 1.6 | 4.8 | 0.00 | 0.03 | 0.03 | 40 | 1003.1 |
| 20260504020003 | 14 | 353 | 3.2 | 4.8 | 0.00 | 0.03 | 0.03 | 42 | 1002.9 |
| 20260504015003 | 14 | 47 | 1.6 | 3.2 | 0.00 | 0.03 | 0.03 | 40 | 1002.7 |
| 20260504014004 | 15 | 10 | 3.2 | 4.8 | 0.00 | 0.03 | 0.03 | 38 | 1002.6 |
| 20260504013004 | 16 | 21 | 3.2 | 9.7 | 0.00 | 0.03 | 0.03 | 37 | 1002.5 |
| 20260504012004 | 16 | 38 | 3.2 | 8.0 | 0.00 | 0.03 | 0.03 | 36 | 1002.5 |
| 20260504011004 | 17 | 358 | 3.2 | 8.0 | 0.00 | 0.03 | 0.03 | 32 | 1002.3 |
| 20260504010004 | 17 | 353 | 3.2 | 11.3 | 0.00 | 0.03 | 0.03 | 29 | 1001.9 |
| 20260504005004 | 17 | 324 | 3.2 | 9.7 | 0.00 | 0.03 | 0.03 | 29 | 1001.7 |
| 20260504004003 | 18 | 23 | 1.6 | 19.3 | 0.00 | 0.03 | 0.03 | 29 | 1001.5 |
| 20260504003004 | 18 | 346 | 3.2 | 19.3 | 0.00 | 0.03 | 0.03 | 28 | 1001.4 |
| 20260504002004 | 19 | 357 | 8.0 | 19.3 | 0.00 | 0.03 | 0.03 | 27 | 1001.3 |
| 20260504000003 | 20 | 353 | 4.8 | 16.1 | 0.00 | 0.03 | 0.03 | 28 | 1001.0 |
| 20260503235004 | 21 | 311 | 8.0 | 24.1 | 0.00 | 0.03 | 0.03 | 27 | 1001.0 |
| 20260503234004 | 21 | 329 | 4.8 | 19.3 | 0.00 | 0.03 | 0.03 | 28 | 1000.7 |
| 20260503233004 | 21 | 337 | 6.4 | 16.1 | 0.00 | 0.03 | 0.03 | 28 | 1000.6 |
| 20260503232004 | 21 | 326 | 4.8 | 14.5 | 0.00 | 0.03 | 0.03 | 28 | 1000.5 |
| 20260503230004 | 21 | 290 | 11.3 | 19.3 | 0.00 | 0.03 | 0.03 | 33 | 1000.5 |
| 20260503224004 | 18 | 303 | 4.8 | 16.1 | 0.00 | 0.03 | 0.03 | 43 | 1000.8 |
| 20260503223004 | 18 | 238 | 3.2 | 8.0 | 0.00 | 0.03 | 0.03 | 42 | 1000.5 |
| 20260503222004 | 18 | 232 | 3.2 | 14.5 | 0.03 | 0.03 | 0.03 | 41 | 1000.6 |
| 20260503221004 | 19 | 282 | 4.8 | 14.5 | 0.03 | 0.03 | 0.03 | 41 | 1000.7 |
| 20260503220004 | 20 | 288 | 4.8 | 24.1 | 0.03 | 0.03 | 0.03 | 41 | 1000.7 |
| 20260503215004 | 19 | 337 | 8.0 | 16.1 | 0.03 | 0.03 | 0.03 | 44 | 1000.9 |
| 20260503214004 | 17 | 310 | 4.8 | 11.3 | 0.03 | 0.03 | 0.03 | 51 | 1001.0 |
| 20260503212003 | 17 | 237 | 8.0 | 19.3 | 0.00 | 0.00 | 0.00 | 43 | 1001.3 |
| 20260503211004 | 17 | 310 | 8.0 | 12.9 | 0.00 | 0.00 | 0.00 | 48 | 1001.4 |
| 20260503210005 | 17 | 294 | 3.2 | 20.9 | 0.00 | 0.00 | 0.00 | 51 | 1001.3 |
| 20260503205004 | 16 | 262 | 8.0 | 32.2 | 0.00 | 0.00 | 0.00 | 56 | 1001.7 |
| 20260503204005 | 19 | 286 | 11.3 | 24.1 | 0.00 | 0.00 | 0.00 | 38 | 1001.0 |
| 20260503203004 | 20 | 267 | 8.0 | 27.4 | 0.00 | 0.00 | 0.00 | 37 | 1001.1 |
| 20260503202003 | 20 | 248 | 8.0 | 24.1 | 0.00 | 0.00 | 0.00 | 38 | 1001.1 |
| 20260503201003 | 20 | 261 | 12.9 | 24.1 | 0.00 | 0.00 | 0.00 | 38 | 1001.1 |
| 20260503200003 | 20 | 280 | 4.8 | 25.7 | 0.00 | 0.00 | 0.00 | 38 | 1001.3 |
| 20260503195003 | 20 | 285 | 8.0 | 24.1 | 0.00 | 0.00 | 0.00 | 38 | 1001.5 |
| 20260503194003 | 21 | 247 | 6.4 | 24.1 | 0.00 | 0.00 | 0.00 | 37 | 1001.8 |
| 20260503192004 | 20 | 246 | 6.4 | 29.0 | 0.00 | 0.00 | 0.00 | 37 | 1001.9 |
| 20260503191004 | 20 | 305 | 12.9 | 24.1 | 0.00 | 0.00 | 0.00 | 36 | 1002.1 |
| 20260503185004 | 21 | 270 | 9.7 | 29.0 | 0.00 | 0.00 | 0.00 | 37 | 1002.3 |
| 20260503184003 | 20 | 288 | 4.8 | 24.1 | 0.00 | 0.00 | 0.00 | 38 | 1002.4 |
| 20260503182005 | 19 | 273 | 12.9 | 35.4 | 0.00 | 0.00 | 0.00 | 38 | 1002.9 |
| 20260503181004 | 19 | 302 | 9.7 | 24.1 | 0.00 | 0.00 | 0.00 | 39 | 1002.8 |
| 20260503180004 | 19 | 295 | 11.3 | 27.4 | 0.00 | 0.00 | 0.00 | 40 | 1002.9 |
| 20260503175004 | 19 | 286 | 8.0 | 20.9 | 0.00 | 0.00 | 0.00 | 40 | 1003.2 |
| 20260503174004 | 19 | 224 | 8.0 | 16.1 | 0.00 | 0.00 | 0.00 | 39 | 1003.2 |
| 20260503173003 | 18 | 221 | 4.8 | 25.7 | 0.00 | 0.00 | 0.00 | 41 | 1003.4 |
| 20260503172004 | 18 | 288 | 9.7 | 22.5 | 0.00 | 0.00 | 0.00 | 41 | 1003.7 |
| 20260503171003 | 18 | 241 | 9.7 | 24.1 | 0.00 | 0.00 | 0.00 | 40 | 1003.9 |
| 20260503151004 | 13 | 241 | 6.4 | 25.7 | 0.00 | 0.00 | 0.00 | 56 | 1005.5 |
| 20260503131004 | 9 | 243 | 3.2 | 9.7 | 0.00 | 0.00 | 0.00 | 76 | 1006.9 |
| 20260503081003 | 6 | 332 | 3.2 | 4.8 | 0.00 | 0.00 | 0.00 | 68 | 1008.3 |
| 20260503055004 | 1 | 67 | 0.0 | 3.2 | 0.00 | 0.00 | 0.00 | 90 | 1009.7 |
| 20260503054003 | 1 | 343 | 1.6 | 3.2 | 0.00 | 0.00 | 0.00 | 90 | 1009.7 |